Location: Usti nad Labem
(50.6670°N, 14.0330°E)
Time: 22:40:18
(UTC+01:00)

Envisat - Pass Details

Date: 09 December 2020
Orbit: 764 x 766 km, 98.1° (Epoch: 15 January)

Event Time Altitude Azimuth Distance (km) Brightness Sun altitude
Rises 06:18:49 0° 13° (NNE) 3,246 6.2 -14.1°
Reaches altitude 10° 06:21:08 10° 12° (NNE) 2,315 5.4 -13.7°
Maximum altitude 06:26:14 79° 287° (WNW) 785 2.9 -13.0°
Drops below altitude 10° 06:31:18 10° 201° (SSW) 2,297 5.5 -12.2°
Sets 06:33:36 0° 200° (SSW) 3,218 6.3 -11.9°
